Regional Weather Roundup
Issued by NWS

Home | Current Version | Previous Version | Text Only | Print | Product List | Glossary On
Versions: 1 2 3 4 5 6 7 8 9 10 11 12 13 14 15 16 17 18 19 20 21 22 23 24 25 26 27 28 29 30 31 32 33 34 35 36 37 38 39 40 41 42 43 44 45 46 47 48 49 50
000
ASUS42 KTBW 200910
RWRFL
FLORIDA REGIONAL WEATHER ROUNDUP
NATIONAL WEATHER SERVICE TAMPA BAY RUSKIN FL
500 AM EDT MON OCT 20 2014

NOTE: "FAIR" INDICATES FEW OR NO CLOUDS BELOW 12,000 FEET WITH NO
SIGNIFICANT WEATHER AND/OR OBSTRUCTIONS TO VISIBILITY.


FLZ001>010-012>015-112-114-115-201000-
PANHANDLE FLORIDA

CITY           SKY/WX    TMP DP  RH WIND       PRES   REMARKS
PENSACOLA      CLEAR     57  52  83 NE6       30.04F
PENSACOLA NAS  CLEAR     51  50  96 NW3       30.03F
MILTON NAS     CLEAR     48  45  89 N3        30.05F
CRESTVIEW      CLEAR     44  43  96 CALM      30.06F
DUKE FIELD     FAIR      46  44  96 CALM      30.04F
VALPARAISO     PTCLDY    51  47  86 N2        30.04F
MARY ESTHER    CLEAR     53  46  78 CALM      30.03F
PANAMA CITY    FAIR      55  49  80 CALM      30.04S
TYNDALL AFB    CLEAR     57  54  87 NE5       30.04F
APALACHICOLA   PTCLDY    62  57  83 NE6       30.02F

STATION/POSITION SKY/WX   TEMP    WIND        PRES    WAVE   SWELL
                          AIR SEA DIR/SP/G            HT/PER HT/PER
                          (F)     (DEG/KT/KT) (MB)    (FT/S) (FT/S)
30.1N   87.6W              71 78   60/  8/ 10 1016.5F   1/ 5   2/ 5
29.2N   88.2W              73 79   80/ 10/ 12 1016.9F   2/ 6   2/ 6
28.8N   86.0W              76 81  100/  6/ 10 1016.1F   2/ 5   2/ 5
PANAMA CITY BEAC           61 76   50/  6/  7 1017.2F
CAPE SAN BLAS    NOT AVBL
TOWER C                    74     120/ 16/ 18 1016.1F
28.5N   84.5W              77 82   70/  2/  2 1016.1F   1/ 3

$$
FLZ011-016>038-118-127-128-134-139-239-201000-
NORTH FLORIDA

CITY           SKY/WX    TMP DP  RH WIND       PRES   REMARKS
MARIANNA       LGT RAIN  51  50  96 CALM      30.06S
TALLAHASSEE    CLEAR     53  49  86 MISG      30.05S
PERRY          CLEAR     57  55  94 CALM      30.05S
CROSS CITY       N/A     58  55  90 CALM      30.03F
LAKE CITY      MOCLDY    59  55  88 NE5       30.05S
GAINESVILLE    CLEAR     57  55  93 CALM      30.04F
MAYPORT NAS    PTCLDY    72  62  71 NE10      30.04F
JACKSONVILLE   PTCLDY    56  56 100 CALM      30.05F
JAX NAS        PTCLDY    70  62  76 N8        30.05F
JAX CRAIG      CLEAR     62  59  90 CALM      30.04F
JAX CECIL      CLEAR     55  55 100 CALM      30.05F
FERNANDINA BEA FAIR      70  63  78 NE6       30.03F
ST AUGUSTINE   CLOUDY    74  64  71 E7        30.04F

STATION/POSITION SKY/WX   TEMP    WIND        PRES    WAVE   SWELL
                          AIR SEA DIR/SP/G            HT/PER HT/PER
                          (F)     (DEG/KT/KT) (MB)    (FT/S) (FT/S)
SHELL POINT                67      70/  4/  6   N/A
KEATON BEACH               60      60/  5/  8 1017.4S
CEDAR KEY                  65      50/ 10/ 12 1017.3F
FERNANDINA                 69 76   80/  3/  5 1017.0F
30.7N   81.3W                 77                N/A     3/ 6   2/11
MAYPORT                    73 76   60/ 12/ 13   N/A
31.4N   80.9W              71 76   90/  8/ 10 1018.1F   3/ 7   3/ 7
ST AUGUSTINE               75     100/  9/ 11 1017.6F

$$
FLZ040-043>046-052-053-057-058-063-144-201000-
INTERIOR CENTRAL FLORIDA

CITY           SKY/WX    TMP DP  RH WIND       PRES   REMARKS
OCALA          CLEAR     61  57  88 CALM      30.03F
THE VILLAGES     N/A     64  63  94 N8        29.93S
LEESBURG       CLEAR     65  63  93 NE5       30.03F
SANFORD        MOCLDY    70  67  90 NE5       30.02
ORLANDO EXEC   CLEAR     70  66  87 CALM      30.01F
ORLANDO INTL   CLEAR     66  65  96 N5        30.01F
WINTER HAVEN   CLEAR     65  63  93 CALM      30.02F
LAKELAND       CLEAR     64  63  94 CALM      30.01F
BARTOW         FOG       61 N/A N/A CALM      30.02F VSB 3/4
OKEECHOBEE       N/A    N/A N/A N/A MISG        N/A

$$
FLZ041-047-054-059-064-141-147-201000-
EAST CENTRAL FLORIDA

CITY           SKY/WX    TMP DP  RH WIND       PRES   REMARKS
DAYTONA BEACH  MOCLDY    68  65  90 SW6       30.02F
DELAND         SUNNY     66  64  94 CALM      30.03F
JFK SPACE CTR  MOCLDY    69  68  95 CALM      30.00F
CAPE CANAVERAL CLEAR     68  68 100 NW3       30.00S FOG
PATRICK AFB    CLEAR     73  70  92 NW5       30.00F
MELBOURNE      CLEAR     67  65  93 CALM      30.00F
VERO BEACH     CLEAR     61  60  97 CALM      30.00F FOG
FT PIERCE      CLEAR     62  61  96 CALM      29.99F FOG
STUART         CLEAR     63  63 100 CALM      30.00F

STATION/POSITION SKY/WX   TEMP    WIND        PRES    WAVE   SWELL
                          AIR SEA DIR/SP/G            HT/PER HT/PER
                          (F)     (DEG/KT/KT) (MB)    (FT/S) (FT/S)
28.5N   80.2W              78 83   70/  8/ 12 1016.1F
28.9N   78.5W              76 81   50/ 14/ 16 1016.6F   5/ 7   3/ 7
TRIDENT PIER               71 80  320/  1/  2 1015.5F
28.4N   80.5W                 80                N/A     2/10
27.6N   80.2W                 81                N/A     2/11   2/11

$$
FLZ050-056-061-142-242-148-248-149-249-151-251-155-255-
160-260-201000-
WEST CENTRAL FLORIDA

CITY           SKY/WX    TMP DP  RH WIND       PRES   REMARKS
CRYSTAL RIVER  FAIR      61  59  94 CALM      30.02F
INVERNESS      FAIR      61  59  94 CALM      30.03S
BROOKSVILLE    CLEAR     63  61  93 NE3       30.02F
ZEPHYRHILLS      N/A     59  57  94 CALM      30.03S
CLEARWATER     CLEAR     70  65  84 CALM      30.01S
TAMPA INTL     CLEAR     67  63  87 CALM      30.02R
TAMPA EXEC       N/A     63  61  94 CALM      30.02S FOG
PLANT CITY     CLEAR     64 N/A N/A CALM      30.03F
MACDILL AFB    CLEAR     66  66  99 E5        30.01S
ST PETERSBURG  CLEAR     72  67  84 E8        30.00S
SARASOTA       CLEAR     65  63  93 E6        29.99S
VENICE           N/A     66  63  88 MISG      30.01S

STATION/POSITION SKY/WX   TEMP    WIND        PRES    WAVE   SWELL
                          AIR SEA DIR/SP/G            HT/PER HT/PER
                          (F)     (DEG/KT/KT) (MB)    (FT/S) (FT/S)
CEDAR KEY                  65      50/ 10/ 12 1017.3F
28.5N   84.5W              77 82   70/  2/  2 1016.1F   1/ 3
27.3N   84.3W                 81                N/A     2/ 5
CLEARWATER BEACH NOT AVBL
MIDDLE TAMPA BAY           70      90/ 10/ 12 1016.2S
VENICE                     67 79   70/  7/  8 1015.5F

$$
FLZ066-069-070-075>078-162-262-165-265-201000-
SOUTHWEST FLORIDA AND KEYS

CITY           SKY/WX    TMP DP  RH WIND       PRES   REMARKS
PUNTA GORDA    CLEAR     65  62  90 CALM      30.01S
FT MYERS       CLEAR     67  65  93 CALM      29.98F
SOUTHWEST INTL CLEAR     65  64  97 CALM      29.99S
NAPLES         CLEAR     68  65  90 NE3       29.98S
MARATHON       PTCLDY    80  71  74 VRB6      29.96S
KEY WEST NAS   MOCLDY    80  70  71 SE12      29.96S
KEY WEST INTL  MOCLDY    81  73  76 SE12      29.97R

STATION/POSITION SKY/WX   TEMP    WIND        PRES    WAVE   SWELL
                          AIR SEA DIR/SP/G            HT/PER HT/PER
                          (F)     (DEG/KT/KT) (MB)    (FT/S) (FT/S)
VENICE                     67 79   70/  7/  8 1015.5F
NAPLES                     69 83   70/  3/  5 1015.9R
26.0N   85.6W              79 83  110/ 10/ 16 1015.0F   2/ 5   2/ 5
DRY TORTUGAS               80     150/  4/  6 1014.3F
NW FL BAY                  81     120/ 11/ 13 1015.0F
SAND KEY                   81     110/ 13/ 15 1014.4S
SOMBRERO KEY               81     120/ 14/ 15 1015.1F
LONG KEY                   81 82  110/ 10/ 11 1015.5F
MOLASSES REEF              81 84  140/ 10/ 12 1014.8F

$$
FLZ067-068-071>074-168-172>174-201000-
SOUTHEAST FLORIDA

CITY           SKY/WX    TMP DP  RH WIND       PRES   REMARKS
W PALM BEACH   CLEAR     70  66  87 CALM      29.98S
FT LAUDER-EXEC CLEAR     69  64  84 CALM      29.98S
FT LAUDERDALE  PTCLDY    78  64  61 SE7       29.97F
POMPANO BEACH  PTCLDY    79  63  57 SE7       29.98F
PEMBROKE PINES MOCLDY    72  66  81 CALM      29.99S
OPA LOCKA      CLEAR     72  67  84 CALM      29.98F
MIAMI          PTCLDY    74  64  71 CALM      29.98F
WEST KENDALL   PTCLDY    72  65  78 CALM      29.98F
HOMESTEAD      CLEAR     71  65  82 CALM      29.98S

STATION/POSITION SKY/WX   TEMP    WIND        PRES    WAVE   SWELL
                          AIR SEA DIR/SP/G            HT/PER HT/PER
                          (F)     (DEG/KT/KT) (MB)    (FT/S) (FT/S)
PORT EVERGLADES            80     130/  7/ 10 1015.0
VIRGINIA KEY               80 81  100/  8/ 10 1015.5S
LAKE WORTH                 80 82  100/  9/ 11 1015.0R
FOWEY ROCKS                81 82  100/ 10/ 11 1015.3F
SETTLEMENT POINT           78     140/  4/  5 1016.0F

$$



USA.gov is the U.S. government's official web portal to all federal, state and local government web resources and services.